Wind_Speed
13 14 14 14 15 15 16 16 16 16 17 17 17 17 17 17 17 17 17 17 17 17 17 17 17 17 17 17 17 17 18 18 17 17 17 17 18 18 18 18 18 18 18
14 14 14 14 15 16 16 17 17 17 17 17 17 17 17 17 17 17 18 18 18 18 18 18 18 18 18 18 18 18 18 18 18 18 18 18 19 19 19 19 20 20 20
15 15 15 15 15 16 16 16 16 17 17 17 17 17 17 17 18 18 18 18 18 19 18 18 18 18 18 18 18 17 18 18 18 18 18 18 19 19 20 20 20 21 21
15 14 14 15 15 15 15 16 16 16 17 17 17 18 18 18 18 19 19 19 19 19 18 18 18 18 18 17 18 18 18 18 18 18 18 18 19 19 20 20 21 21 22
14 14 14 14 15 15 16 16 16 17 17 17 18 18 18 18 19 19 19 19 19 19 18 18 18 18 18 18 18 18 18 18 18 18 19 19 19 20 20 20 21 22 22
14 14 14 15 15 16 16 17 17 17 18 18 18 18 19 18 18 18 18 18 18 18 18 18 18 18 18 18 18 18 18 18 19 19 20 20 20 20 21 21 21 22 23
15 15 15 16 16 17 17 18 18 18 19 19 19 19 19 19 19 18 18 18 18 18 18 18 19 19 19 19 19 19 19 19 19 20 20 20 21 21 21 22 22 23 23
16 16 17 17 18 18 19 19 19 20 20 20 20 20 20 20 19 19 19 19 19 19 19 19 19 19 19 19 19 19 19 19 19 20 20 20 21 21 21 22 22 23 23
18 18 18 19 20 20 20 21 21 21 21 21 21 21 21 21 20 20 20 20 20 20 20 20 20 20 19 20 20 19 19 20 20 20 20 20 20 21 21 21 21 22 22
19 20 20 20 21 21 22 22 23 23 23 23 23 22 22 22 22 22 22 22 22 22 21 21 21 21 21 21 21 21 21 21 21 21 21 21 21 21 22 22 23 23 24
19 20 21 21 22 22 23 23 24 24 24 24 24 24 24 24 24 24 24 24 24 24 23 23 23 23 23 23 23 23 23 23 23 23 24 24 24 24 25 25 26 26 27
19 20 21 22 23 23 24 24 25 25 26 26 26 25 25 25 26 26 26 26 26 26 26 26 26 26 26 26 26 26 26 27 27 27 27 27 28 28 28 29 29 30 30
20 21 22 23 24 24 25 25 26 26 27 27 27 27 27 27 28 28 28 29 29 29 30 30 30 30 30 30 30 31 31 31 31 31 31 31 32 32 32 33 33 33 34
21 22 22 23 24 24 25 26 27 27 28 28 28 29 29 30 30 31 31 32 32 32 33 34 34 34 34 34 35 35 35 36 36 36 36 36 36 36 37 37 37 38 38
23 23 23 23 24 25 26 27 27 28 28 29 30 30 31 32 32 33 34 34 35 36 36 37 37 38 38 39 39 40 41 41 41 41 41 41 41 41 42 42 42 43 43
23 23 23 23 24 25 26 27 27 28 29 30 30 31 32 33 34 34 35 36 37 38 39 39 40 41 41 42 43 44 45 45 46 46 46 46 46 46 47 47 47 47 47
22 22 22 23 23 23 24 25 26 27 28 29 30 31 32 33 34 35 35 36 38 39 39 40 41 42 43 44 46 47 48 49 49 50 50 50 50 51 51 52 52 52 52
20 21 21 22 22 23 24 25 26 27 28 29 30 31 32 33 34 35 36 37 38 39 40 41 42 43 44 46 47 49 50 51 51 52 53 53 53 54 54 55 55 56 56
20 20 21 22 23 23 24 25 26 27 28 29 30 32 33 34 35 36 36 37 39 39 40 41 42 44 45 46 48 49 50 51 52 54 54 55 55 56 57 57 58 59 59
20 21 22 23 24 24 25 26 27 28 29 31 32 33 33 34 35 36 36 38 39 39 41 42 43 44 45 47 48 49 50 52 53 54 55 56 57 57 58 59 60 60 61
21 22 23 25 26 27 28 29 30 31 32 33 33 34 35 35 36 36 37 38 39 40 41 43 44 45 46 48 49 50 51 52 53 53 55 56 57 58 59 60 61 62 63
24 25 26 27 28 29 30 31 32 32 32 33 33 33 34 34 34 35 36 37 38 39 41 43 44 45 46 48 49 51 51 51 52 53 55 57 58 59 60 61 62 63 64
26 27 28 29 30 30 31 31 31 30 30 31 31 32 32 33 34 35 36 38 39 40 41 43 45 46 47 49 51 53 54 54 54 54 55 57 59 61 62 64 65 66 66
28 29 30 30 31 31 30 30 30 30 30 31 31 32 33 34 35 36 37 38 40 41 43 45 47 48 50 52 54 55 57 59 60 58 58 58 60 62 64 65 66 67 68
29 30 30 31 31 30 30 30 30 30 31 32 33 33 34 35 37 38 39 41 43 45 46 48 51 53 54 56 58 60 61 64 65 67 65 65 65 65 66 68 69 70 71
30 30 30 30 30 30 30 30 31 31 32 33 34 35 36 37 39 41 43 44 46 48 51 53 55 57 60 62 64 66 68 69 70 72 73 72 72 72 72 72 72 73 74
Wind_Direction
249 253 257 260 264 267 268 268 268 268 268 268 268 267 267 266 265 263 262 261 261 260 260 259 259 259 259 258 258 258 258 258 258 259 259 260 261 261 262 263 263 264 264
253 254 257 259 263 265 266 267 268 267 268 268 268 268 268 267 266 264 263 262 261 260 259 259 259 258 258 259 259 259 258 259 259 260 261 262 262 263 264 264 265 265 266
255 256 257 259 262 263 265 266 267 267 268 268 268 268 268 267 266 265 264 262 260 259 258 257 257 257 258 259 260 261 261 261 262 263 263 264 264 264 265 266 267 267 267
257 258 258 259 261 262 264 265 267 269 270 270 270 270 269 268 267 265 263 261 260 258 257 256 256 257 258 260 261 262 263 264 264 265 265 266 266 266 267 268 268 269 269
259 259 260 261 262 264 266 267 268 270 272 273 273 272 271 270 269 266 263 261 259 258 256 256 255 256 257 259 260 261 262 263 264 265 266 267 267 268 269 269 270 270 271
263 263 264 265 266 267 268 269 271 272 273 275 275 274 274 272 269 266 263 261 259 258 256 256 256 257 257 259 260 261 262 264 265 266 267 268 270 271 271 272 272 273 273
266 267 268 269 269 269 270 271 272 273 274 274 274 273 273 272 269 265 263 261 260 258 257 257 258 258 259 260 261 263 264 265 266 268 269 270 271 272 273 274 274 275 276
267 269 270 270 270 270 270 271 272 272 273 273 273 273 272 271 268 265 263 262 261 260 259 259 259 259 260 261 262 263 265 266 268 269 270 270 271 272 272 273 274 276 276
267 268 269 269 270 270 271 271 271 272 273 273 273 273 272 271 268 265 263 262 262 262 261 261 260 260 260 262 263 264 265 266 266 267 268 269 270 271 272 274 275 276 278
267 267 267 267 268 269 270 271 272 272 273 273 273 273 272 270 268 265 263 263 262 262 261 261 260 260 261 262 263 264 265 265 266 267 267 268 269 271 272 273 275 276 277
268 267 267 267 268 269 270 271 272 272 272 273 273 272 271 269 268 266 264 264 264 263 262 261 261 261 262 263 263 264 265 266 266 267 268 269 270 271 272 273 275 276 277
272 271 269 269 269 270 270 271 271 272 272 272 272 272 271 270 268 267 265 264 264 264 263 263 263 263 264 264 265 266 266 266 267 268 269 270 271 272 273 274 275 276 277
276 275 273 273 272 272 272 271 271 272 272 272 272 272 272 271 269 268 267 266 265 265 265 265 265 265 265 266 267 267 268 268 268 269 270 271 272 273 274 274 276 276 277
278 277 276 275 274 273 273 273 272 272 272 273 273 273 272 272 271 270 269 268 268 267 267 267 267 267 267 268 268 269 269 270 270 271 271 272 273 273 274 274 275 276 276
278 277 277 275 274 273 273 273 273 273 274 274 274 273 273 273 272 272 271 271 270 270 269 269 269 269 269 269 270 270 271 271 271 272 272 273 273 274 274 275 275 276 276
279 279 278 277 277 276 275 275 275 275 275 276 275 275 275 274 274 274 274 273 272 272 271 271 271 271 271 271 271 271 271 272 272 273 273 273 274 274 275 275 275 275 276
281 281 281 281 281 280 280 280 279 279 278 278 277 277 277 277 276 276 276 275 274 274 274 274 273 273 273 272 272 272 272 272 273 273 273 273 273 273 274 274 274 274 274
284 284 285 285 285 285 284 284 283 283 282 281 281 280 280 280 279 279 278 277 276 276 276 275 274 274 273 273 272 272 272 272 272 272 272 272 272 272 272 272 273 273 273
287 288 288 289 289 290 289 288 287 287 286 285 284 284 283 283 282 281 280 279 279 278 278 277 276 275 275 274 273 273 273 273 273 272 273 272 272 272 272 271 271 272 272
290 291 291 292 292 292 292 291 290 289 288 287 286 285 284 284 283 283 282 281 281 280 279 279 278 277 276 276 275 275 274 274 274 274 274 273 272 272 271 271 271 271 271
292 292 293 293 293 293 292 291 290 289 289 288 287 286 285 285 284 284 283 283 283 282 282 282 281 280 280 279 278 277 276 276 276 275 275 274 274 273 273 272 272 272 271
292 293 294 294 294 293 292 292 291 290 289 289 288 287 287 286 286 285 285 285 285 284 284 283 282 282 281 281 280 279 278 277 276 276 275 275 275 274 274 273 273 272 272
292 293 294 294 294 294 293 293 292 291 290 289 289 288 287 287 287 287 287 287 287 286 286 285 285 284 284 283 283 283 282 280 278 276 276 276 276 275 274 274 273 273 272
292 294 295 295 294 294 293 293 292 292 291 290 290 290 289 288 288 288 288 289 289 289 288 287 287 287 287 286 285 285 284 284 283 280 278 276 275 275 275 274 274 273 273
292 293 294 294 293 293 292 291 291 291 291 291 291 290 290 290 290 291 291 291 291 291 290 290 289 289 288 288 287 286 285 285 285 284 282 280 278 276 274 273 273 273 273
291 292 292 292 292 292 291 291 291 292 292 291 291 291 291 292 292 293 293 293 292 292 292 291 291 290 290 289 288 287 286 285 284 284 283 282 280 278 277 275 274 273 272
Height
5887 5887 5887 5887 5887 5887 5887 5887 5887 5887 5887 5887 5887 5886 5886 5886 5885 5885 5884 5884 5883 5883 5883 5882 5882 5882 5882 5881 5881 5881 5881 5881 5881 5881 5881 5881 5881 5881 5881 5881 5881 5881 5881
5885 5885 5885 5885 5885 5885 5885 5885 5885 5885 5885 5885 5884 5884 5884 5883 5883 5883 5882 5881 5881 5881 5880 5880 5879 5879 5879 5879 5879 5879 5879 5879 5879 5879 5879 5878 5878 5878 5878 5878 5878 5878 5878
5883 5883 5883 5883 5883 5883 5883 5883 5883 5883 5882 5882 5882 5882 5881 5881 5880 5880 5879 5879 5879 5878 5878 5877 5877 5877 5877 5876 5876 5876 5876 5876 5876 5876 5876 5876 5876 5876 5876 5875 5875 5876 5876
5881 5880 5881 5881 5881 5881 5881 5880 5880 5880 5880 5880 5879 5879 5879 5878 5878 5877 5877 5876 5876 5876 5875 5875 5875 5874 5874 5874 5874 5873 5873 5873 5873 5873 5873 5873 5873 5873 5873 5873 5873 5872 5872
5879 5879 5879 5879 5879 5878 5878 5878 5878 5878 5877 5877 5877 5876 5876 5875 5875 5874 5874 5873 5873 5873 5873 5872 5872 5872 5871 5871 5871 5871 5871 5871 5870 5870 5870 5870 5870 5870 5870 5869 5869 5869 5869
5877 5877 5877 5877 5876 5876 5876 5876 5875 5875 5874 5874 5873 5873 5872 5872 5872 5871 5871 5871 5870 5870 5870 5869 5869 5869 5869 5868 5868 5868 5868 5868 5867 5867 5867 5867 5866 5866 5866 5866 5866 5865 5865
5875 5875 5875 5875 5874 5874 5873 5873 5872 5872 5871 5871 5870 5870 5869 5869 5868 5868 5868 5867 5867 5867 5867 5866 5866 5866 5865 5865 5865 5865 5865 5864 5864 5864 5863 5863 5863 5862 5862 5862 5862 5861 5861
5873 5873 5873 5872 5872 5871 5870 5870 5869 5869 5868 5867 5867 5866 5866 5866 5865 5865 5864 5864 5864 5863 5863 5863 5863 5862 5862 5862 5861 5861 5861 5861 5860 5860 5860 5859 5859 5859 5859 5858 5858 5857 5857
5871 5870 5870 5869 5868 5868 5867 5866 5866 5865 5864 5864 5863 5863 5862 5862 5861 5861 5861 5860 5860 5860 5860 5859 5859 5859 5858 5858 5858 5857 5857 5857 5857 5856 5856 5856 5855 5855 5855 5854 5854 5854 5853
5868 5867 5866 5865 5865 5864 5863 5863 5862 5861 5860 5860 5859 5859 5858 5858 5857 5857 5857 5856 5856 5856 5856 5855 5855 5855 5855 5854 5854 5854 5853 5853 5853 5852 5852 5852 5852 5851 5851 5850 5850 5849 5849
5864 5863 5863 5862 5861 5860 5860 5859 5858 5857 5856 5856 5855 5854 5854 5854 5853 5853 5853 5852 5852 5852 5851 5851 5851 5850 5850 5850 5850 5849 5849 5849 5849 5848 5848 5848 5847 5847 5846 5846 5845 5845 5844
5861 5860 5859 5858 5857 5856 5855 5854 5853 5853 5852 5851 5850 5850 5849 5849 5848 5848 5848 5848 5847 5847 5847 5846 5846 5846 5845 5845 5845 5845 5844 5844 5843 5843 5843 5843 5842 5842 5841 5841 5840 5839 5839
5857 5856 5855 5854 5853 5852 5851 5850 5849 5848 5847 5846 5846 5845 5844 5844 5843 5843 5842 5842 5842 5841 5841 5841 5840 5840 5840 5839 5839 5839 5838 5838 5837 5837 5837 5836 5836 5835 5835 5834 5833 5833 5832
5853 5852 5851 5850 5848 5847 5846 5845 5844 5843 5842 5841 5840 5840 5839 5838 5837 5837 5836 5836 5836 5835 5835 5834 5834 5833 5833 5833 5832 5831 5831 5831 5830 5830 5830 5829 5828 5828 5827 5826 5825 5825 5824
5848 5847 5846 5845 5844 5842 5841 5840 5839 5838 5837 5836 5835 5834 5833 5832 5831 5831 5830 5829 5829 5828 5827 5827 5827 5826 5825 5825 5824 5823 5823 5822 5822 5822 5821 5821 5820 5819 5818 5817 5816 5815 5814
5843 5842 5841 5840 5839 5837 5836 5835 5834 5833 5831 5830 5829 5828 5827 5826 5825 5824 5823 5822 5821 5820 5820 5819 5818 5818 5817 5816 5815 5814 5813 5813 5812 5812 5811 5811 5810 5809 5808 5807 5806 5805 5804
5838 5837 5836 5835 5834 5832 5831 5830 5828 5827 5825 5824 5823 5821 5820 5819 5818 5817 5816 5814 5813 5812 5811 5810 5809 5808 5808 5806 5805 5804 5803 5802 5802 5801 5800 5800 5799 5798 5796 5795 5794 5792 5791
5833 5832 5831 5829 5828 5827 5826 5824 5823 5821 5819 5818 5816 5815 5813 5812 5810 5809 5808 5806 5805 5803 5802 5801 5800 5798 5797 5796 5794 5793 5792 5791 5790 5789 5788 5787 5786 5785 5783 5782 5780 5779 5778
5828 5827 5825 5824 5823 5822 5820 5819 5817 5815 5813 5812 5810 5808 5806 5805 5803 5801 5800 5798 5796 5794 5793 5791 5789 5788 5786 5784 5782 5781 5780 5778 5777 5776 5775 5773 5772 5770 5769 5767 5766 5764 5763
5823 5822 5820 5819 5817 5816 5814 5813 5811 5809 5807 5805 5803 5801 5799 5797 5795 5793 5791 5789 5787 5785 5783 5781 5779 5777 5775 5773 5770 5769 5768 5766 5764 5763 5761 5759 5757 5755 5754 5752 5750 5749 5748
5818 5816 5815 5813 5812 5810 5808 5806 5804 5802 5800 5797 5795 5793 5791 5789 5786 5784 5782 5780 5778 5776 5773 5771 5768 5766 5764 5761 5758 5757 5756 5753 5752 5750 5747 5744 5743 5740 5738 5737 5735 5733 5732
5812 5811 5809 5807 5805 5803 5801 5799 5796 5794 5792 5789 5787 5785 5782 5780 5778 5775 5773 5771 5768 5766 5763 5760 5757 5754 5752 5749 5746 5743 5742 5742 5739 5737 5733 5730 5728 5725 5723 5721 5719 5717 5715
5806 5804 5802 5800 5798 5796 5794 5791 5788 5786 5784 5782 5779 5777 5774 5772 5769 5767 5764 5761 5758 5756 5753 5749 5746 5743 5740 5737 5733 5730 5727 5726 5725 5724 5721 5717 5713 5710 5707 5704 5702 5700 5698
5800 5798 5796 5793 5791 5789 5786 5784 5781 5779 5776 5774 5771 5769 5766 5763 5760 5758 5755 5752 5748 5745 5742 5738 5735 5731 5728 5724 5720 5716 5712 5708 5705 5706 5706 5703 5699 5694 5691 5687 5684 5682 5680
5793 5791 5789 5786 5784 5781 5779 5776 5774 5771 5769 5766 5763 5760 5757 5755 5751 5748 5745 5742 5738 5735 5731 5727 5723 5718 5714 5710 5706 5701 5697 5692 5687 5684 5685 5684 5681 5678 5675 5670 5667 5664 5661
5787 5784 5782 5780 5777 5774 5772 5769 5766 5764 5761 5758 5755 5752 5749 5745 5742 5738 5735 5731 5727 5723 5719 5714 5710 5705 5700 5695 5690 5685 5680 5675 5671 5665 5662 5661 5659 5657 5653 5651 5648 5645 5641